map of LIR home
LIR - Airport
Location
City:  Liberia, Guanacaste, Costa Rica
Name:Daniel Oduber Quirós International Airport
ICAO:MRLB
IATA:LIR

Details
Type:Airport (Aerodrome, Airfield)
Use:Public/Civil, International (customs port of entry)
Latitude:10°35'35"N (10.593015)
Longitude:85°32'44"W (-85.545544)
Elevation:269 ft (82 m)
Variation:1.07°W (WMM2015 magnetic declination)
-0.14° annual change
Runways:1
Longest:9022 × 148 ft (2750 × 45 m)

Time
Time Zone:UTC-6
Local Time:

Weather
METAR:MRLB 200600Z 08012KT CAVOK 26/19 A2986 NOSIG
TAF:MRLB 192300Z 2000/2024 08019KT 9999 FEW045 TX34/2019Z TN21/2011Z
TEMPO 2000/2024 09021G32KT

Related Locations
Nearby:
Farthest:CCK: 12248 mi / 19711 km
West Island (Pulau Panjang) [Cocos (Keeling) Islands], CC

Find:

   beyond  
but within

Other Information
Maps:
NOTAMs:
Links:
Sources:

  
flag of Costa Rica   

Airport Diagram

Airport diagram for LIR

Larger airport diagram (OBSOLETE) from NGA

Sectional Chart

Flight Planning
at skyvector.com

Satellite Image

Google Maps Satellite view

 

Copyright © 2004-2018 Karl L. Swartz. All rights reserved.
The Great Circle Mapper name and logo are trademarks of the Great Circle Mapper.
All other trademarks mentioned herein belong to their respective owners.
Please see credits for attibutions and further copyright information.

  Follow gcmap on Facebook Follow gcmap on Twitter Follow gcmap on Google+ GCmap on LinkedIn

hCard Microformat

Geo Microformat